RH
37 40 41 42 43 43 43 45 46 46 45 43 40 38 36 36 34 32 33 33 32 33 33 34 35 35 35 36 36 34 32 30 29 26 25 24 23 23 22 22 24 25 26 27 29 34 35 38 49 58 65 70 66 57 47 38 47 60 65 68 64 61 64 58 51 50 49 51 54 56 62 63 60 57 49 49 52 49 50 49 43 44 46 46 50 48 40
37 40 42 42 43 44 44 44 45 45 46 45 43 41 38 36 36 35 35 35 33 31 31 32 34 34 33 33 35 37 36 33 31 29 28 27 26 25 24 24 26 26 27 27 27 36 39 39 47 56 64 72 69 59 48 42 53 66 68 68 65 64 69 65 61 59 53 53 58 61 68 68 62 61 55 47 50 52 51 52 52 51 49 46 45 42 38
38 40 42 42 43 44 44 44 45 45 45 45 44 43 40 38 37 36 36 37 35 32 31 30 32 33 31 31 33 35 36 36 34 31 31 30 29 28 26 27 29 27 28 28 28 36 44 45 46 50 58 68 69 63 55 49 56 62 62 67 70 68 70 70 67 64 59 59 62 64 72 75 66 57 51 49 54 60 65 69 68 64 59 57 56 49 41
39 41 43 44 44 45 45 43 44 45 45 45 44 43 42 39 36 36 37 37 35 34 33 32 33 33 31 31 34 34 36 38 37 34 32 32 32 31 30 29 30 30 30 28 28 32 40 44 45 48 55 65 70 70 61 50 50 54 61 71 75 72 72 72 70 67 65 65 67 66 65 66 63 56 52 54 57 61 72 78 73 69 67 62 60 60 55
42 45 46 46 46 47 47 44 44 45 45 44 43 42 42 41 38 36 38 38 35 33 32 32 34 35 33 33 34 35 38 40 40 37 35 33 33 34 33 32 31 31 31 31 30 29 32 35 38 45 54 63 74 79 72 62 54 54 60 66 71 75 74 72 74 72 68 69 71 69 63 59 63 64 61 61 63 63 67 68 64 63 63 57 52 56 57
45 48 49 50 49 48 48 46 44 43 43 43 43 42 41 42 41 37 37 40 38 35 33 31 32 34 34 34 34 37 40 41 42 42 37 35 36 35 34 34 32 32 34 34 31 29 30 30 32 41 51 60 71 79 80 78 73 69 67 63 66 75 75 73 76 73 69 71 72 72 70 66 66 69 67 66 69 68 65 64 63 58 53 52 49 47 45
49 52 52 53 52 51 49 48 46 43 42 41 41 41 41 43 43 39 36 38 39 38 36 34 33 33 33 34 35 37 39 41 43 43 40 38 37 36 35 34 32 33 34 33 33 36 37 31 30 37 43 49 65 81 86 87 87 86 82 73 71 73 73 76 80 76 72 73 74 75 75 73 74 75 75 74 73 69 63 61 62 54 43 43 46 43 41
51 53 54 54 54 53 52 51 49 45 41 40 38 39 42 44 42 38 36 36 37 38 37 37 36 35 35 34 34 36 38 40 42 42 41 39 38 38 37 35 32 31 32 37 42 44 43 37 33 37 41 49 67 83 87 89 93 93 89 85 83 78 71 73 78 79 76 76 81 83 80 80 81 76 73 76 74 67 60 56 53 46 37 36 39 39 41
53 55 56 56 56 54 52 52 50 46 41 39 36 35 40 43 41 38 36 35 37 37 37 38 37 38 38 36 34 36 38 39 41 40 40 40 39 39 37 35 33 31 38 49 48 42 46 49 46 44 49 61 75 83 87 92 97 97 94 93 92 86 78 75 78 79 74 77 84 82 78 82 81 73 72 73 66 56 51 47 43 39 38 38 35 36 40
56 56 56 55 54 51 50 50 48 46 42 38 35 33 36 40 39 37 36 37 38 38 36 37 37 38 38 35 35 38 38 38 39 40 40 41 40 39 36 35 35 34 41 49 42 37 48 55 53 55 67 79 86 91 98 101 99 98 97 94 92 88 83 80 83 81 73 77 82 69 64 72 69 63 64 61 53 48 44 41 40 39 40 39 36 37 38
56 54 51 50 49 48 49 48 46 44 41 37 35 35 37 39 37 36 35 35 38 39 38 38 38 38 37 35 35 37 37 37 40 42 42 42 42 40 37 36 36 35 40 44 41 42 50 54 59 74 90 99 99 98 101 102 99 99 99 96 92 88 82 77 79 80 76 80 75 54 49 59 58 55 59 56 51 50 47 46 45 43 42 42 40 40 39
53 49 46 46 47 48 48 46 43 41 38 36 38 39 39 39 38 36 34 32 35 38 37 37 38 39 38 35 34 37 39 40 41 43 43 42 42 41 38 38 38 37 43 49 49 49 52 62 77 90 96 100 101 100 99 99 99 100 99 97 93 88 83 76 72 72 72 75 69 52 49 59 57 56 61 60 56 55 54 51 49 47 47 45 41 39 36
49 44 43 45 47 45 44 42 39 36 35 36 38 38 37 38 39 37 35 32 32 34 36 36 38 38 36 35 37 42 44 42 42 44 43 41 41 41 40 40 41 42 44 44 46 54 63 72 84 89 89 95 100 98 95 97 100 101 101 98 94 91 87 80 74 69 67 70 67 58 60 66 62 58 61 60 59 58 54 52 51 49 47 42 36 32 30
45 43 43 44 44 42 40 39 37 35 33 34 36 35 36 38 39 38 36 34 34 36 38 38 38 39 41 42 44 46 45 44 44 44 42 41 42 42 42 41 40 41 42 41 48 65 74 73 75 80 85 94 99 96 94 98 100 100 99 96 94 91 83 74 72 69 67 73 74 69 72 70 57 55 60 60 59 59 57 58 53 44 42 42 35 32 34
45 43 42 42 42 41 39 39 38 36 35 34 34 35 37 38 38 38 39 38 39 44 45 41 40 44 48 50 50 48 46 47 45 42 42 44 44 44 45 42 38 40 45 49 58 73 79 76 75 82 89 94 98 97 96 98 97 94 93 91 88 87 80 77 82 83 83 91 92 84 79 68 53 56 63 59 59 64 71 73 59 44 46 51 45 44 46
48 45 43 42 42 41 40 40 39 37 36 35 35 36 38 39 39 42 44 45 46 50 51 46 42 45 50 53 54 51 49 48 45 43 45 46 47 49 49 44 41 45 50 54 63 77 88 88 88 92 93 92 96 98 96 97 95 92 91 89 86 87 86 87 95 96 95 101 103 96 83 63 52 58 61 57 57 58 63 67 56 43 44 49 52 55 54
53 49 46 44 43 42 40 39 38 37 37 37 39 42 43 43 45 49 53 53 51 53 55 51 46 46 49 51 51 50 51 51 49 48 47 45 50 56 55 51 53 57 57 61 70 83 92 95 96 97 93 90 95 97 94 93 91 87 88 89 89 92 93 94 99 100 99 101 101 100 89 66 53 58 60 60 65 65 62 59 48 40 44 54 61 59 57
56 53 50 48 46 44 42 40 39 40 43 45 48 50 50 50 52 55 58 56 53 54 55 53 50 49 50 49 48 50 52 52 52 52 49 49 56 60 57 59 69 75 74 75 79 80 83 88 93 94 92 91 94 95 93 93 89 85 87 91 93 97 101 101 97 94 97 98 92 94 93 75 61 65 67 68 77 81 74 62 53 51 54 60 64 55 51
60 59 55 52 49 46 44 44 44 48 52 54 55 56 57 57 57 57 57 56 54 53 53 52 51 51 50 50 50 51 53 54 54 54 52 56 65 65 60 65 78 85 85 85 82 78 78 81 84 88 89 86 86 90 90 89 87 85 86 87 88 90 95 98 94 89 93 97 96 99 99 80 67 70 72 75 89 95 85 73 68 65 60 62 70 67 58
66 63 59 55 52 48 47 48 51 54 56 57 59 62 62 61 59 57 57 56 54 53 54 54 53 50 49 48 48 50 55 56 56 56 57 61 67 67 65 71 82 86 86 85 83 82 84 85 84 88 89 84 85 88 85 82 82 82 81 82 83 88 91 92 95 97 98 100 101 101 96 82 76 77 73 73 85 91 86 81 75 67 64 70 77 75 66
70 67 62 57 54 51 50 52 54 56 59 62 65 67 66 63 61 61 60 59 56 53 52 51 49 47 45 45 47 53 57 56 57 60 63 64 65 65 64 65 72 78 80 82 82 81 83 88 88 88 86 85 87 89 87 86 84 79 81 87 92 96 97 96 99 102 101 102 102 97 95 95 94 88 79 78 85 88 90 92 85 75 75 76 73 71 71
74 70 66 63 61 61 61 63 65 67 70 71 70 69 68 67 64 62 59 55 51 48 46 44 43 42 43 45 52 57 56 53 54 55 54 53 51 51 50 48 51 58 61 65 69 70 73 80 82 79 75 75 82 87 86 86 84 78 80 89 94 97 100 101 102 98 94 100 99 88 90 101 101 93 89 91 96 98 97 95 89 83 79 75 69 68 70
78 74 72 72 73 75 76 77 78 77 76 74 73 71 68 64 60 55 51 47 46 44 41 40 39 39 42 45 47 47 44 42 41 39 38 37 35 35 35 35 37 42 42 45 52 56 60 63 66 69 66 63 72 82 79 78 84 82 76 80 88 91 92 94 94 86 86 97 97 86 89 100 101 101 103 101 99 101 98 95 93 89 80 72 68 67 67
81 78 79 82 83 85 86 84 82 79 77 74 71 66 61 54 49 47 46 46 45 42 39 37 36 36 38 37 35 34 33 32 30 28 29 30 29 28 28 30 34 36 35 38 45 50 52 51 54 62 62 56 64 76 70 66 73 75 74 79 80 79 82 85 79 74 80 88 81 75 82 91 94 99 102 100 100 99 94 92 92 86 76 68 63 61 61
86 85 87 90 90 90 88 84 80 77 73 67 61 54 49 46 45 46 47 47 45 41 37 33 33 33 32 29 27 27 26 26 25 24 25 27 28 27 25 27 32 33 32 35 40 44 47 46 46 50 50 46 56 68 65 59 62 69 76 77 71 68 75 73 65 72 89 83 57 48 63 79 88 90 86 86 93 89 80 79 78 71 68 67 60 52 46
91 93 95 95 92 89 85 80 75 69 62 55 51 47 44 43 45 45 44 42 39 37 33 29 28 27 24 22 20 19 19 22 22 21 21 22 23 23 22 23 26 28 30 33 34 36 40 40 40 42 42 41 50 58 58 56 61 68 67 60 57 63 65 60 66 87 98 78 49 48 69 88 97 95 84 81 86 83 76 75 70 60 57 57 54 49 43
97 98 96 92 87 82 76 69 62 57 52 48 45 43 41 42 42 40 37 35 32 30 27 24 21 20 18 17 18 18 19 21 21 22 24 24 23 25 28 30 30 31 35 38 39 41 43 41 40 43 43 43 46 47 45 46 54 59 52 42 49 59 55 55 75 90 83 67 62 74 92 100 102 101 92 83 83 84 79 72 66 61 58 56 54 53 51
98 95 89 83 76 70 63 58 54 50 47 45 43 42 40 38 36 33 29 26 24 23 22 20 18 18 17 18 20 21 21 24 27 28 26 26 32 41 47 50 49 51 58 63 58 54 53 52 50 50 49 49 49 45 41 42 45 44 36 32 44 54 50 54 70 77 71 69 71 78 89 94 93 92 87 78 78 82 76 65 61 62 60 56 53 51 50
92 86 78 71 65 61 57 54 50 46 44 42 40 37 34 30 27 24 21 20 21 21 23 24 22 19 16 18 20 20 20 27 33 32 33 45 59 67 71 75 74 73 80 85 76 66 67 70 68 64 60 60 60 54 47 48 48 40 31 30 38 42 39 44 56 63 62 59 58 61 68 70 68 69 67 65 70 76 69 56 52 54 52 46 42 37 34
83 75 69 64 61 58 54 50 46 42 41 38 34 31 27 23 20 19 18 18 18 20 25 28 24 18 15 16 17 16 17 26 34 39 53 74 84 81 83 92 93 88 89 93 89 85 86 87 84 79 73 73 77 73 62 58 56 43 32 34 36 32 31 40 52 57 54 48 49 54 51 44 44 47 47 46 51 54 49 41 37 37 35 31 28 25 23
76 71 67 63 58 53 48 44 42 39 34 30 26 23 20 18 17 17 16 16 16 18 21 21 18 18 17 15 17 19 21 31 51 72 86 91 87 84 89 97 98 94 95 98 97 96 97 96 91 87 84 83 87 85 76 68 56 39 34 45 49 41 42 53 64 72 77 76 75 67 50 38 40 41 36 34 36 36 33 28 26 24 22 21 22 19 16
73 68 63 57 51 47 43 39 36 31 26 23 20 18 17 16 16 14 14 15 17 17 19 20 22 23 20 18 24 30 30 38 66 95 105 98 90 90 93 96 97 96 94 94 94 95 100 101 95 90 89 88 85 84 81 72 55 43 54 78 84 70 65 72 79 84 87 88 83 68 45 36 40 42 35 30 29 29 27 23 21 20 18 19 21 19 16
68 61 55 49 44 40 35 31 26 22 19 18 16 15 16 15 14 14 16 17 17 20 24 27 26 26 27 31 36 40 42 49 64 78 82 76 74 83 93 97 99 97 93 93 95 91 92 96 96 92 87 83 85 88 77 57 49 61 84 105 103 82 65 64 68 68 67 70 74 70 54 45 47 48 42 35 31 30 28 24 22 22 19 18 20 22 23
58 52 46 40 36 30 25 22 19 17 16 15 14 15 15 14 16 19 19 19 22 26 29 31 34 39 48 54 54 56 64 70 71 70 66 54 51 71 93 98 96 96 99 99 94 81 75 84 94 94 85 80 89 93 74 54 65 89 96 93 86 72 58 56 62 66 69 76 82 78 65 56 57 60 60 56 50 42 33 27 24 22 19 18 19 24 30
46 41 35 29 25 21 18 17 16 14 14 14 13 15 16 17 20 22 22 26 34 37 37 47 63 70 69 69 73 79 84 82 77 81 82 69 62 80 98 95 89 93 96 91 80 71 71 79 87 87 80 72 73 77 72 68 79 87 78 70 71 72 72 77 81 84 88 91 88 78 64 57 64 75 77 71 61 49 41 36 32 27 24 24 27 35 45
33 28 24 21 19 17 15 14 13 13 14 16 17 19 21 21 24 27 27 31 39 42 47 63 79 79 74 81 91 93 89 82 77 85 98 93 79 79 87 87 86 87 80 69 64 65 68 72 72 71 67 59 55 65 77 80 78 76 76 79 82 83 86 91 93 96 99 99 96 95 88 75 70 73 70 61 50 41 33 28 28 30 32 35 42 56 70
23 20 18 17 15 14 13 13 15 16 18 21 22 24 25 26 28 31 31 31 34 40 49 61 66 66 72 85 91 91 92 88 79 83 96 93 76 71 83 93 92 82 68 59 60 63 66 68 65 60 59 58 58 68 82 87 87 91 95 95 94 94 96 98 99 100 101 99 99 102 101 94 87 82 75 68 64 58 52 51 56 62 67 74 82 89 92
18 17 16 14 13 13 15 17 20 21 21 23 24 26 29 32 32 32 35 37 38 40 46 52 55 61 71 80 87 92 92 84 75 80 93 93 85 86 93 91 78 67 61 62 69 75 76 73 65 61 68 77 80 83 91 97 99 101 101 99 100 101 100 100 101 100 99 100 101 100 99 99 99 97 93 91 90 87 83 84 90 94 97 101 101 94 84
15 15 14 13 14 16 19 22 24 23 23 27 30 31 33 34 34 36 41 44 43 45 50 53 57 63 68 72 81 87 80 72 76 87 94 94 92 91 85 73 64 64 70 78 81 76 68 66 68 75 88 98 98 96 99 101 99 99 99 99 100 101 100 101 103 101 99 100 99 96 93 90 87 88 90 88 84 83 85 87 91 96 100 102 99 93 84
14 13 14 17 19 21 24 28 29 28 29 33 35 34 33 35 38 42 45 47 50 54 56 58 64 68 63 61 70 74 70 75 88 92 86 85 89 88 81 73 65 65 71 75 71 64 65 74 86 94 99 101 100 99 101 101 100 101 101 99 98 100 101 101 101 100 98 97 93 88 84 79 78 82 82 76 75 84 95 96 94 95 100 103 100 92 80
14 15 19 23 25 27 30 33 32 31 31 32 32 31 33 40 45 45 43 47 58 64 62 63 71 72 64 64 74 76 72 79 88 83 78 85 91 91 86 75 60 58 68 72 69 72 83 93 99 100 99 100 101 101 101 101 98 96 95 96 99 99 96 93 95 95 89 80 76 74 70 66 66 68 66 64 68 76 82 86 94 100 97 86 73 58 47
16 20 24 28 31 34 35 34 33 33 32 31 32 35 39 42 43 42 42 50 61 69 70 73 79 78 70 72 84 86 83 89 95 88 83 86 86 81 77 66 56 64 82 89 86 91 98 101 101 100 100 100 99 96 95 95 92 90 92 95 98 101 100 93 87 84 74 61 53 51 49 47 46 45 46 50 55 59 67 84 98 95 72 47 37 36 36
18 23 30 35 39 40 37 35 36 36 33 34 37 42 43 41 38 42 54 65 72 78 82 84 87 87 85 88 94 93 88 90 93 87 80 78 75 72 72 72 73 82 93 97 98 100 101 101 99 96 96 99 98 93 94 97 95 94 98 100 96 96 96 87 75 71 70 64 57 51 46 41 38 36 38 43 51 63 81 94 88 63 36 23 29 42 49
23 36 44 44 43 40 36 36 39 39 38 42 44 41 41 43 47 60 78 86 86 91 95 90 86 91 96 98 100 99 92 88 87 85 85 89 90 89 91 94 96 97 99 100 102 101 99 99 99 97 99 101 92 78 79 88 89 86 92 97 96 94 94 90 87 88 89 87 84 79 73 69 65 58 56 65 77 86 89 80 55 30 21 28 42 57 68
41 56 56 47 42 38 33 35 41 42 40 41 40 37 45 58 67 77 88 90 87 92 95 87 82 91 99 98 98 101 100 98 97 96 97 99 99 99 100 100 100 100 101 101 100 100 102 103 99 92 91 89 79 70 75 87 91 91 95 99 99 99 100 99 99 99 97 97 98 97 96 97 92 79 71 75 78 68 53 39 27 24 32 44 56 73 87
63 67 56 43 40 36 31 37 46 45 40 42 43 39 44 59 70 77 84 87 89 96 97 91 90 98 101 99 99 100 100 100 100 100 100 100 100 100 100 100 100 100 100 98 97 98 99 93 80 69 68 71 72 78 90 98 99 98 100 100 99 100 101 100 100 100 98 96 95 94 92 86 76 66 60 56 47 34 23 19 23 39 55 61 64 72 76
72 65 51 40 36 36 37 45 49 44 42 57 69 61 51 57 73 85 90 90 93 97 98 97 99 100 99 98 101 103 101 100 100 98 98 101 102 99 98 100 101 100 96 94 89 80 69 61 57 58 63 69 74 83 95 102 102 99 100 101 100 100 101 100 99 100 97 88 82 85 85 74 59 51 47 40 35 37 41 38 38 53 69 71 65 63 60
63 55 44 35 34 41 46 48 46 42 45 62 80 82 76 78 90 98 97 95 97 100 100 99 100 99 98 99 100 99 97 97 98 98 98 98 97 97 101 104 100 92 86 81 70 54 46 49 56 57 56 61 71 85 96 102 102 101 101 100 99 100 102 99 95 94 89 78 72 80 86 78 66 63 65 65 64 65 64 60 59 63 66 62 54 51 56
51 46 39 36 42 49 47 42 47 61 71 77 85 91 94 95 98 99 97 97 99 99 98 97 97 97 97 98 99 99 97 96 97 99 94 86 85 92 97 93 86 82 77 65 52 51 59 62 52 43 44 51 62 79 96 103 101 100 102 101 99 99 101 100 97 94 87 76 74 84 88 78 70 74 80 83 85 82 69 56 49 44 41 45 55 66 79
43 38 37 39 42 45 44 48 63 82 93 94 94 97 98 99 99 97 94 92 93 96 98 98 97 96 95 95 97 98 96 92 94 95 88 80 85 97 99 87 76 72 67 59 55 63 67 51 30 28 40 42 39 54 84 103 103 98 99 102 100 99 101 101 94 83 71 64 69 84 89 81 75 78 74 64 62 67 60 41 27 30 45 66 83 92 98
36 35 37 40 40 46 60 75 86 90 90 91 94 95 95 96 96 90 82 78 82 89 92 91 90 92 92 89 88 90 91 91 96 98 93 88 91 97 99 94 76 52 44 57 72 69 50 29 21 26 32 28 24 41 73 96 101 99 100 102 100 99 101 98 84 65 52 46 48 56 63 59 55 58 56 41 31 34 37 31 34 54 80 96 100 100 99
36 37 37 39 46 58 74 85 88 85 82 81 82 83 85 87 83 75 70 71 76 81 84 87 91 93 89 79 74 76 80 84 90 94 95 97 97 94 95 98 80 44 31 53 72 57 31 20 21 22 21 19 22 35 57 81 98 102 100 99 100 100 100 95 82 64 52 43 38 38 42 40 35 36 39 33 28 33 46 57 72 89 99 100 99 100 100
Wind_Speed
43 44 45 45 44 43 42 41 40 39 39 40 41 41 41 40 41 41 40 40 39 39 40 40 40 40 40 39 40 40 40 39 38 37 38 38 38 37 37 36 35 36 38 38 39 39 40 40 40 40 39 40 43 47 50 50 47 43 41 42 46 47 47 47 46 44 42 41 41 42 42 42 43 47 48 45 44 45 44 43 44 45 47 48 48 49 48
44 45 46 46 46 45 45 44 43 42 41 41 42 43 43 43 43 42 41 40 42 42 42 41 40 41 43 43 41 40 40 41 41 39 38 39 40 40 38 37 37 38 39 40 40 40 41 41 42 43 42 42 46 50 51 51 49 45 45 48 49 48 47 47 47 47 46 45 43 42 41 41 43 48 51 51 48 46 46 46 48 51 51 50 51 51 49
46 46 47 47 47 46 46 46 46 45 45 44 44 44 44 45 45 44 43 41 42 44 44 43 42 42 43 44 44 43 42 42 43 42 40 40 41 42 41 39 40 41 41 42 42 42 43 43 44 46 45 46 49 51 51 53 52 50 49 50 49 48 48 48 49 50 49 48 44 41 41 42 46 51 53 50 47 46 46 46 48 50 49 48 50 51 50
48 49 49 48 48 47 47 47 47 47 47 47 47 46 46 47 47 45 44 44 43 43 43 43 42 42 44 44 44 45 44 42 43 44 43 41 41 42 43 42 42 42 44 45 45 45 45 46 46 48 48 48 50 52 54 56 55 53 52 51 50 51 51 51 52 52 52 51 48 47 48 48 51 55 54 51 50 49 46 46 48 48 47 48 48 48 48
51 52 51 50 49 48 48 48 48 48 49 48 49 49 48 49 49 46 44 45 45 45 45 43 41 41 44 44 44 44 44 43 43 45 45 44 43 43 43 44 45 45 46 47 48 48 49 50 49 50 51 51 51 53 55 57 57 56 55 55 53 53 54 54 54 55 55 54 53 52 52 52 53 55 56 55 54 53 53 54 54 53 54 56 53 51 52
53 54 53 52 50 49 49 49 50 50 50 50 50 51 51 50 50 48 46 44 45 46 46 45 43 42 43 43 44 44 44 45 44 44 45 46 45 46 46 47 48 48 49 50 51 51 53 53 53 53 53 53 53 54 55 57 57 56 57 59 57 56 56 56 56 57 58 57 56 55 54 55 55 55 56 56 56 56 57 57 56 56 58 59 56 56 57
55 55 55 54 53 52 51 51 51 51 52 52 52 53 52 51 50 49 47 45 44 44 44 44 44 44 43 43 44 44 44 45 45 45 46 47 48 49 50 50 52 52 52 53 53 53 55 56 56 55 56 55 55 55 55 56 57 57 59 62 61 61 60 57 57 59 59 58 58 58 58 57 57 57 56 56 57 57 57 58 57 56 56 56 56 57 59
57 57 56 55 55 54 54 54 54 53 53 53 53 52 51 50 49 49 47 45 44 43 43 43 43 44 44 45 45 46 45 46 46 47 48 49 50 51 52 55 56 55 54 54 54 54 56 58 58 58 58 56 55 56 56 57 58 59 61 61 61 63 63 61 59 59 58 57 57 58 57 57 57 58 58 58 58 57 57 56 55 55 56 56 55 59 61
58 57 57 56 57 56 56 56 55 54 53 53 53 51 49 48 47 47 46 45 44 43 43 44 44 44 45 47 47 47 47 48 48 49 50 52 53 54 56 58 58 56 54 55 57 58 58 59 59 59 58 56 55 57 57 58 60 61 62 61 61 64 66 65 64 63 61 59 57 56 55 55 58 60 60 58 56 55 54 53 53 55 57 57 57 59 60
57 57 57 57 57 56 56 56 55 54 54 53 52 51 48 46 45 45 44 44 44 45 45 45 46 46 47 49 49 49 50 50 51 52 53 55 56 57 58 59 58 57 57 58 61 61 60 60 60 59 57 56 56 57 57 59 61 63 64 64 64 64 65 65 66 66 65 62 59 55 53 57 62 61 57 54 52 52 52 52 53 55 56 57 58 57 56
55 55 56 57 56 55 55 55 54 54 54 53 51 49 46 45 45 45 45 45 45 46 47 47 48 49 50 51 51 51 52 53 53 54 56 57 59 60 60 59 59 59 59 61 62 61 60 60 60 57 55 56 57 58 58 61 63 64 64 65 65 64 63 63 63 63 64 64 59 53 55 63 64 56 50 50 51 52 52 52 52 53 53 54 55 53 51
53 55 57 57 56 55 54 54 54 54 53 51 48 46 44 44 45 46 46 46 47 48 49 50 51 52 53 54 54 54 55 56 56 57 58 58 60 61 60 59 60 60 59 61 62 61 60 59 57 56 56 57 59 60 61 63 64 64 64 64 64 63 61 60 59 58 60 61 57 54 59 65 61 54 51 52 52 50 51 52 51 51 51 51 51 51 50
53 56 57 56 55 54 53 53 53 52 49 47 46 45 45 45 46 47 48 48 49 51 52 53 54 56 56 56 56 56 57 59 58 58 59 60 59 60 60 59 60 60 61 61 61 60 59 57 57 57 58 59 61 62 63 64 64 63 63 62 62 61 59 57 56 55 56 58 59 59 62 61 58 56 54 51 50 50 50 51 50 49 49 49 48 48 49
55 56 55 55 54 53 52 51 50 49 47 47 47 47 47 47 48 49 50 51 52 53 55 56 57 58 59 59 59 59 59 60 59 59 60 60 59 59 59 60 61 61 63 63 60 58 58 58 58 58 59 60 61 62 62 62 62 62 61 60 59 58 57 54 54 54 55 56 58 59 60 59 56 54 50 47 48 48 46 47 47 44 43 44 44 43 43
56 55 54 54 53 53 52 50 50 49 49 49 50 50 50 50 51 52 53 54 54 56 58 59 58 59 60 60 60 61 61 60 60 60 59 59 59 60 61 63 64 62 61 60 58 57 58 59 58 58 58 58 59 60 59 59 59 59 59 58 58 56 54 51 51 53 51 51 54 55 57 57 51 45 44 45 46 44 43 45 44 39 37 38 39 39 40
56 55 54 54 53 53 52 51 51 51 52 52 52 53 52 53 53 54 56 56 57 59 61 61 60 60 60 60 61 61 61 61 62 62 60 59 60 61 62 64 64 61 60 58 57 56 56 57 57 56 56 56 56 57 57 56 56 54 54 54 54 53 50 47 46 47 45 46 48 49 51 50 43 38 40 42 42 41 42 43 41 37 35 37 39 40 41
57 55 54 53 53 53 53 53 53 53 54 54 54 55 55 55 56 57 58 60 60 61 62 62 62 61 60 61 62 62 62 62 62 62 61 62 61 60 61 63 61 59 58 56 55 54 54 54 55 55 55 53 52 54 54 53 53 52 49 48 47 47 46 44 44 44 44 45 46 44 46 46 39 37 39 37 37 39 40 41 41 38 37 37 38 40 40
57 56 54 53 53 54 54 54 55 55 55 56 56 57 58 58 59 59 61 62 62 61 62 63 62 62 62 63 64 64 63 62 61 61 62 62 59 59 60 58 56 55 54 52 53 53 53 53 52 52 52 51 50 52 53 52 51 50 47 46 45 44 44 46 48 47 45 46 47 46 46 43 37 35 35 34 35 38 39 38 38 37 37 37 38 40 42
58 56 55 55 55 55 55 56 56 56 57 58 58 60 60 61 61 62 62 63 63 62 63 63 63 63 64 65 64 63 62 60 60 61 62 59 57 57 56 53 51 52 51 51 53 52 52 52 51 50 51 50 49 50 50 50 50 48 46 47 46 44 43 44 45 44 42 42 44 44 43 40 36 36 36 33 36 41 39 37 38 40 40 39 39 39 41
58 57 57 57 57 57 57 57 57 58 59 60 61 61 62 63 63 64 64 64 64 63 63 63 64 64 64 64 63 61 59 58 59 60 59 57 55 55 53 50 50 52 52 53 53 52 52 53 51 51 52 51 49 49 50 50 50 48 47 47 45 43 42 42 42 41 39 40 42 42 41 38 36 36 36 36 40 43 41 38 41 43 43 43 43 42 42
59 58 58 58 58 59 58 59 59 60 60 61 62 62 63 63 63 64 64 65 65 64 63 64 64 64 63 62 60 58 57 58 59 58 57 55 54 54 54 52 52 54 55 54 55 55 54 54 54 54 55 55 53 51 51 52 52 50 47 46 44 42 42 41 41 41 41 43 43 40 37 36 35 35 37 38 39 40 39 39 41 42 42 42 43 43 43
59 58 58 59 59 59 59 60 60 61 61 61 61 61 62 63 63 64 65 66 66 66 64 63 63 63 62 60 57 56 57 59 58 57 57 56 56 56 57 56 55 56 56 56 57 57 56 56 57 58 58 57 56 54 53 54 55 52 50 48 46 44 43 42 43 44 45 47 45 40 38 39 39 39 39 38 38 40 42 43 43 43 44 44 45 44 44
59 59 59 59 59 59 60 60 60 60 60 60 60 61 62 63 64 65 66 66 66 65 63 63 63 62 60 58 57 58 60 60 59 59 59 60 59 59 59 59 58 58 58 59 60 60 59 59 59 59 59 57 56 55 55 55 54 52 51 51 49 47 46 47 49 50 50 49 46 43 43 45 46 46 46 44 44 46 47 47 46 45 46 46 47 48 47
59 59 59 59 60 60 59 59 58 58 59 60 61 62 63 64 64 65 65 65 64 64 63 63 62 61 60 59 60 62 62 62 61 62 63 64 64 62 61 61 61 61 60 60 60 61 61 60 59 59 59 57 56 56 57 57 56 54 54 53 51 49 48 49 52 55 55 53 49 46 48 51 51 51 50 48 49 50 50 49 49 48 48 48 48 49 50
59 59 59 59 59 58 57 57 58 58 59 60 62 62 62 63 63 63 63 63 64 65 65 63 61 61 63 63 63 63 64 64 65 65 65 66 65 64 62 61 62 63 61 60 60 60 61 60 59 59 59 57 56 56 57 57 57 55 55 55 53 51 51 53 55 55 55 55 51 48 50 52 51 50 50 49 50 51 51 52 53 51 50 52 53 54 54
57 57 57 57 56 56 56 57 58 59 60 61 61 62 61 62 62 62 62 64 65 67 67 65 62 63 66 66 66 66 65 65 65 66 65 65 64 64 63 61 61 61 60 60 59 59 59 59 58 58 58 56 55 55 56 56 55 55 56 57 54 52 53 54 56 55 55 55 52 48 48 50 48 46 47 47 47 49 50 52 53 52 52 53 54 54 54
55 55 54 54 54 55 57 58 59 60 60 60 60 61 61 61 61 61 63 65 67 69 70 68 66 67 68 67 66 65 64 63 63 62 61 61 61 60 59 58 57 57 56 56 55 55 55 56 55 55 54 53 53 55 56 56 56 57 58 57 54 54 54 54 55 56 56 55 52 48 48 49 48 46 46 47 48 50 51 52 53 52 51 52 51 51 51
52 52 53 54 55 57 58 59 59 59 59 59 60 60 60 61 62 63 64 66 68 69 70 70 68 68 68 65 61 59 59 61 60 59 57 56 55 53 52 51 50 50 49 49 50 50 50 51 51 50 49 49 51 53 55 55 57 59 58 55 52 53 54 54 56 56 55 53 51 49 49 50 49 49 50 51 51 52 53 54 52 51 51 52 51 50 50
51 52 54 55 56 57 57 57 58 58 58 59 60 60 61 63 65 66 66 67 68 67 67 67 67 66 64 61 58 56 56 56 55 54 53 50 46 44 45 45 46 44 43 44 45 45 44 44 43 43 43 44 45 48 49 51 54 56 55 54 53 53 54 54 54 54 52 51 50 50 52 53 53 53 55 55 54 55 56 55 52 51 52 53 52 51 50
52 54 55 55 55 56 56 57 57 58 59 61 62 63 63 65 66 67 67 67 66 64 63 62 63 63 61 58 56 55 53 51 50 49 46 43 40 39 39 40 40 38 37 39 40 39 37 36 35 35 36 37 40 43 44 45 48 51 49 48 48 49 50 49 47 46 47 48 47 49 52 54 55 56 56 55 54 54 55 54 52 52 52 51 51 51 50
53 54 54 54 55 55 56 57 58 59 61 63 65 66 66 66 67 68 67 65 63 61 60 60 60 61 59 55 52 51 49 45 41 38 37 36 35 33 32 33 33 32 31 33 34 33 31 30 30 30 30 33 37 39 39 42 46 45 39 36 36 38 39 40 38 38 40 42 43 47 51 52 52 53 53 51 51 51 52 51 50 50 49 47 47 47 46
52 53 53 54 55 56 57 58 60 62 63 65 66 67 67 67 67 66 63 61 59 57 57 57 57 58 56 52 48 47 45 40 35 33 33 33 29 26 26 28 29 29 29 29 30 29 29 29 29 29 30 33 36 38 40 41 40 31 25 25 29 31 33 34 34 35 38 40 41 45 47 46 45 46 47 46 45 45 46 45 45 44 42 41 41 42 42
51 52 53 54 55 56 58 60 61 63 64 65 65 65 65 64 63 61 59 58 57 55 54 54 55 55 53 49 44 42 42 40 37 37 38 38 33 27 25 25 26 27 28 29 29 28 28 29 30 31 31 32 36 40 40 35 27 21 18 22 26 28 31 33 32 33 35 35 36 38 39 38 37 39 40 40 39 38 38 37 37 35 34 35 36 37 36
51 52 53 54 56 58 60 61 63 64 64 64 62 61 61 60 58 57 56 56 55 52 51 51 51 50 48 45 40 36 34 34 33 32 33 35 33 29 26 26 26 27 28 29 30 30 29 28 30 32 33 34 35 37 32 22 18 19 20 21 22 25 27 26 25 25 25 25 27 29 31 31 32 32 30 29 29 29 28 28 28 29 30 31 31 31 30
51 53 55 56 58 59 60 62 62 62 61 60 58 58 57 56 54 53 52 51 49 48 47 46 45 45 44 41 36 31 29 29 27 24 23 24 26 26 26 26 27 28 29 31 32 31 28 27 29 32 34 34 31 30 26 19 16 19 20 17 18 19 18 15 14 15 16 17 19 20 22 24 25 25 23 21 20 20 20 22 23 25 27 27 27 27 28
52 54 56 57 58 59 59 59 59 58 57 56 55 55 53 51 50 49 47 45 43 42 42 42 42 42 41 36 32 29 25 23 21 20 20 21 24 25 25 24 25 27 29 30 30 28 27 28 31 32 32 28 23 21 22 18 14 14 14 13 13 13 12 11 11 12 13 14 15 15 16 16 16 16 16 15 14 15 17 19 21 23 25 26 27 28 29
53 55 55 56 56 56 55 55 55 54 53 52 52 50 48 46 45 42 40 39 37 35 36 38 40 39 37 33 30 27 23 20 19 19 18 18 19 21 21 20 23 25 26 25 26 26 25 27 31 29 24 19 16 14 14 13 11 10 12 12 12 13 14 15 16 17 17 16 15 15 16 15 14 13 14 14 14 15 17 19 22 24 26 27 28 28 28
53 53 53 53 53 52 52 52 52 51 50 48 47 45 42 40 37 34 31 29 28 27 27 29 30 29 29 27 25 23 22 21 19 17 15 12 11 14 17 18 20 23 23 21 22 23 22 23 24 18 10 7 8 8 10 13 15 15 16 15 15 15 17 17 18 18 17 16 14 14 16 18 18 17 18 19 20 20 20 22 24 26 27 27 26 25 24
50 50 50 50 50 50 49 49 48 47 45 42 40 38 35 30 27 23 21 19 18 18 18 19 18 17 18 18 17 16 17 16 13 13 12 9 8 11 14 16 18 21 20 17 19 21 19 17 14 8 2 4 7 9 11 14 15 14 16 16 14 15 17 20 20 20 20 20 19 18 18 19 20 21 22 22 22 21 21 22 24 27 28 28 26 22 21
47 47 47 48 48 48 47 45 44 42 39 35 32 29 25 20 17 14 11 11 12 14 16 17 16 15 13 9 4 3 3 4 6 7 8 8 9 10 12 16 19 21 18 16 16 16 12 8 6 5 6 9 11 11 12 14 15 14 15 15 15 17 19 21 23 24 24 25 25 24 23 22 23 23 23 23 23 23 23 23 26 28 28 25 21 20 20
45 45 45 46 46 45 42 40 38 35 31 28 24 20 15 11 9 7 6 8 10 12 14 15 15 15 14 11 8 6 4 3 1 4 5 7 9 10 12 17 20 17 11 9 9 9 6 8 8 8 9 10 11 12 13 16 17 16 16 18 21 23 24 24 25 26 27 26 26 25 25 26 26 25 24 23 23 22 21 22 24 25 22 18 15 15 15
44 44 44 44 42 39 36 34 32 28 23 20 16 11 7 6 4 3 4 7 10 10 11 12 12 11 10 9 6 4 3 3 4 5 5 8 11 11 12 14 14 8 3 3 5 7 10 11 11 10 11 13 15 16 18 18 18 18 19 22 24 26 27 27 26 25 26 27 25 24 25 26 27 26 25 23 22 22 22 22 21 18 15 12 10 8 8
43 42 41 38 35 33 30 28 24 20 16 12 9 6 4 2 1 1 3 7 9 9 10 12 10 7 6 7 7 7 6 6 6 7 7 8 9 8 6 6 6 4 3 6 9 11 12 12 11 12 14 17 19 20 20 19 19 20 23 25 27 27 28 28 27 25 25 26 26 26 26 27 29 29 28 27 26 25 23 19 15 12 10 9 8 8 9
40 37 34 31 28 26 24 21 17 13 9 7 6 5 4 2 1 1 3 7 9 8 9 10 9 7 7 7 7 7 7 6 5 5 4 3 4 3 2 2 3 4 7 9 11 12 12 12 13 15 17 19 21 21 21 22 23 23 23 26 28 28 26 25 24 21 19 18 19 19 20 22 22 21 20 20 20 17 14 11 9 9 9 10 10 10 8
33 28 25 24 22 20 18 14 10 7 6 6 6 5 4 3 2 2 4 6 7 7 8 9 9 8 7 6 5 3 3 3 3 3 3 4 4 3 3 4 7 10 11 12 12 13 13 13 15 18 19 21 22 23 23 24 24 22 22 23 24 22 19 15 13 12 11 12 13 13 13 12 10 7 4 5 5 5 7 8 10 11 12 12 11 10 8
24 21 20 19 17 14 12 9 7 7 7 5 4 3 4 3 2 2 3 5 5 5 5 6 7 7 5 4 3 3 4 4 5 6 6 7 7 8 9 11 13 13 12 12 13 14 14 14 16 18 19 20 22 24 25 23 20 20 21 21 17 13 10 9 9 10 11 11 10 8 6 3 1 3 4 5 7 8 10 12 13 12 11 10 9 8 7
18 17 17 15 12 10 9 8 8 8 7 5 3 3 3 2 2 1 2 2 2 3 3 4 5 5 5 4 4 6 8 8 8 9 9 9 10 11 12 12 13 12 12 13 15 15 15 16 17 19 20 21 22 23 21 19 19 22 23 18 12 10 11 11 10 10 10 10 9 8 7 7 7 8 9 9 11 12 13 13 12 10 9 9 9 7 8
16 16 13 11 10 10 9 9 8 7 5 5 4 4 3 2 2 1 1 1 3 4 5 4 3 2 3 5 7 9 10 11 11 10 10 10 10 11 11 11 11 10 12 14 15 15 16 18 20 21 21 22 23 22 20 18 21 25 22 16 12 12 12 11 10 9 9 9 9 8 7 7 8 9 10 10 11 11 11 11 10 9 9 10 10 9 10
14 12 11 11 12 10 9 9 9 7 6 5 5 4 3 2 1 1 2 3 3 3 3 3 3 5 7 8 9 10 11 11 11 11 10 10 9 9 10 11 10 10 12 14 15 15 17 20 21 22 22 22 24 23 20 18 22 27 24 16 12 11 10 8 9 9 8 8 8 7 6 6 7 8 8 9 9 9 10 10 9 9 11 12 11 10 10
11 11 11 12 11 10 9 9 8 7 6 6 6 5 3 1 1 2 3 4 3 2 2 3 5 7 9 8 8 9 10 10 11 11 11 10 9 9 9 10 10 11 12 14 15 17 19 20 20 22 24 25 26 25 21 18 22 28 26 17 12 11 9 7 6 7 6 6 5 4 4 5 6 7 8 10 11 10 9 10 11 12 12 12 10 9 11
11 12 12 11 10 10 9 8 8 8 8 9 8 8 7 5 4 4 6 6 5 4 5 5 5 6 7 7 7 9 10 10 10 11 11 10 9 8 8 9 10 10 11 13 15 16 17 18 19 21 23 25 26 27 23 19 20 25 26 20 14 11 10 8 7 7 7 6 5 4 4 5 7 7 7 9 11 11 11 12 13 11 10 9 11 14 16
13 12 11 11 11 11 11 12 12 12 12 12 11 11 10 9 8 8 8 8 7 7 6 5 3 4 5 7 8 8 8 8 8 9 9 9 9 8 8 9 9 8 9 11 14 14 14 17 19 21 23 25 26 27 24 18 14 18 24 23 18 13 11 10 9 8 8 9 8 7 7 8 9 9 10 11 12 13 12 11 10 9 10 13 17 21 22
Wind_Direction
302 302 303 302 301 299 296 294 292 291 292 293 295 295 295 295 295 295 295 294 293 291 290 290 290 290 289 289 289 291 291 290 288 288 289 290 290 289 290 292 291 289 288 287 286 284 284 283 280 278 275 271 271 272 275 278 279 277 273 268 267 267 266 269 273 273 270 266 262 259 258 258 260 266 268 265 262 262 263 264 263 260 256 254 255 258 260
299 300 300 301 300 298 296 293 292 291 291 292 293 293 294 294 293 294 295 295 294 292 292 292 291 291 290 290 289 289 289 288 287 287 288 288 288 288 290 291 291 290 288 288 288 286 284 283 281 278 275 271 271 273 277 279 279 275 271 268 270 269 268 270 272 271 269 268 265 262 259 258 258 259 263 265 265 263 260 259 260 261 260 258 259 259 260
298 298 299 300 300 298 296 294 292 292 291 291 292 293 293 293 292 293 293 293 292 292 292 292 291 291 290 290 290 289 287 286 286 285 285 286 287 288 289 290 290 291 289 288 288 286 283 281 280 279 276 273 272 274 276 277 276 274 272 271 271 270 268 268 267 267 269 268 265 261 257 255 255 258 262 264 264 263 261 259 258 260 262 261 260 260 259
297 297 298 299 299 297 296 295 293 292 292 292 292 292 293 293 292 292 291 290 289 289 289 289 290 289 289 288 288 288 287 287 286 284 283 285 287 288 289 290 290 290 290 289 288 286 284 282 280 279 277 275 273 273 275 276 276 277 275 272 269 268 267 266 265 266 266 265 261 258 256 256 259 263 266 265 262 261 260 259 259 261 262 261 260 261 259
297 297 297 298 297 296 295 295 294 293 292 292 292 292 293 293 293 292 291 290 289 288 287 287 287 286 286 287 287 287 288 286 285 284 284 285 286 288 289 290 291 291 290 289 288 287 286 284 283 281 279 276 273 272 274 276 278 278 276 273 270 267 266 265 265 265 264 263 261 259 258 258 259 262 265 265 264 262 261 261 261 262 262 261 259 261 261
296 296 296 296 295 294 294 293 293 293 292 292 292 292 292 292 292 291 290 289 288 288 288 288 288 287 287 287 287 287 287 286 286 286 286 286 286 288 289 290 291 291 290 289 289 289 288 287 285 283 280 278 275 274 275 276 278 277 276 275 272 269 267 265 263 263 264 263 262 260 258 257 258 260 262 264 264 263 263 262 262 262 262 263 261 261 263
295 294 294 294 294 294 293 292 292 292 293 293 293 292 292 291 290 290 289 287 286 286 287 287 287 288 288 288 287 287 287 287 287 287 286 287 287 288 290 290 290 289 290 290 291 289 287 286 285 284 282 281 279 278 277 277 276 275 275 275 274 273 271 268 264 263 264 264 263 261 259 259 260 260 261 262 262 261 261 262 263 263 264 265 264 263 264
293 292 292 293 293 293 293 292 292 292 293 294 294 293 292 290 289 288 288 286 286 286 287 287 287 288 289 288 288 288 288 288 287 287 287 287 288 289 290 289 288 291 293 292 289 286 284 285 286 285 284 283 281 279 278 277 275 274 274 274 274 273 272 270 268 266 266 265 262 260 261 262 262 262 263 262 261 259 259 261 262 262 263 264 264 263 263
290 291 291 292 292 292 292 292 292 292 294 294 293 293 291 289 287 287 286 287 287 288 288 288 289 290 289 289 289 289 289 288 287 288 288 288 289 290 289 289 291 293 293 289 286 286 285 284 285 284 283 283 281 279 278 277 275 273 273 272 272 272 273 273 272 271 270 268 266 265 264 262 261 262 263 263 262 262 262 262 261 261 261 261 260 261 263
290 291 292 292 292 292 292 292 292 292 293 294 293 291 289 287 286 286 286 288 289 290 290 291 291 291 290 290 290 290 289 289 289 290 289 290 290 289 289 291 292 292 289 286 286 287 285 283 283 283 283 282 279 278 277 275 273 273 272 272 271 271 272 272 271 271 270 269 270 271 269 264 263 265 266 265 266 266 265 263 262 263 264 264 264 264 265
290 292 293 293 293 293 293 293 292 292 294 293 291 289 287 286 287 288 288 290 291 291 292 292 292 292 291 291 291 291 291 291 291 290 290 290 290 290 290 291 290 289 287 286 285 285 284 283 284 283 281 279 277 276 274 273 273 273 272 272 271 270 270 270 271 271 270 269 272 274 270 265 266 269 270 269 268 268 269 268 266 267 269 270 271 270 269
291 293 294 294 294 293 293 292 292 293 293 291 289 287 288 288 289 290 291 292 293 293 294 294 293 292 292 292 293 293 293 292 291 291 290 290 290 290 291 291 290 289 287 284 285 285 284 284 283 281 280 277 276 275 274 273 273 272 271 271 270 269 269 270 271 271 270 270 270 271 269 268 270 271 270 269 269 270 272 272 272 271 272 273 274 274 272
292 294 294 293 293 293 293 292 292 292 292 290 289 289 290 291 292 292 292 293 293 294 294 294 293 292 292 293 293 293 292 291 291 292 291 291 291 292 292 291 290 289 287 285 286 286 285 284 282 280 279 278 276 275 274 274 273 272 271 270 269 269 269 270 270 270 270 270 269 269 271 273 273 271 271 272 274 274 274 273 271 270 272 273 273 273 272
293 294 293 293 293 293 293 293 292 292 291 290 290 291 293 293 293 293 293 293 294 294 293 292 292 293 293 293 292 291 291 291 291 291 292 292 293 293 292 290 289 288 287 288 287 286 284 283 282 280 279 277 276 275 275 275 274 272 271 270 270 270 269 270 270 269 270 271 270 270 272 272 272 273 275 276 277 277 275 272 269 269 272 273 271 269 268
294 294 294 293 293 294 294 294 293 292 292 292 292 293 294 294 294 293 293 293 293 292 291 292 293 293 292 292 292 292 292 292 292 292 293 294 293 291 289 288 288 288 287 287 286 285 283 282 281 280 278 277 277 277 276 275 274 273 273 272 271 270 268 268 269 269 269 269 269 269 270 271 273 275 276 275 275 275 274 273 272 271 270 270 268 267 266
295 295 295 294 293 294 294 293 292 292 292 292 292 293 293 293 293 293 292 292 292 291 291 292 293 293 292 292 292 292 292 292 293 293 294 292 290 288 287 287 287 287 286 286 286 284 282 282 281 279 278 277 277 277 276 275 274 274 274 274 275 274 274 272 270 268 266 264 266 270 271 273 275 273 271 272 273 271 270 270 271 270 267 265 265 265 266
294 295 295 294 293 293 293 292 292 291 291 292 292 292 293 293 293 292 291 291 291 291 291 292 293 293 293 292 292 293 293 292 292 292 291 290 288 286 285 287 288 287 287 287 285 283 282 281 280 279 278 278 277 276 275 275 274 273 273 273 273 274 275 273 270 268 267 266 269 272 273 275 277 271 268 270 271 269 267 266 269 269 266 263 262 264 266
294 294 294 293 293 292 292 291 291 291 291 291 292 292 292 293 292 291 291 291 291 291 291 291 293 293 292 292 292 292 291 291 292 291 290 289 286 285 286 289 289 289 288 286 283 281 280 280 280 280 279 277 276 275 274 274 274 274 273 271 269 268 268 267 267 269 270 271 273 273 272 275 276 270 267 268 269 267 265 266 269 269 265 263 263 264 263
293 292 292 292 292 291 291 291 290 291 291 291 291 292 292 292 292 291 290 290 291 291 291 291 292 291 291 291 291 291 291 291 291 289 288 287 286 286 289 290 288 286 285 283 282 282 282 281 281 280 278 277 276 274 274 273 273 272 270 269 269 268 266 266 269 270 270 271 272 271 271 272 272 270 269 267 265 264 264 264 265 265 266 266 265 262 260
291 291 291 291 291 291 291 290 290 290 291 291 291 291 291 290 290 290 289 289 289 290 290 290 290 290 290 290 290 290 291 290 288 287 287 287 288 288 289 288 285 283 282 282 282 283 282 281 281 279 278 277 276 274 274 274 272 271 271 270 270 269 267 266 268 268 268 268 268 270 272 274 273 269 266 261 258 259 261 262 262 263 265 265 263 260 259
289 289 289 289 289 289 289 289 289 289 289 289 289 289 289 289 289 289 289 289 289 289 289 289 289 290 290 290 290 290 289 287 287 287 288 288 288 287 286 284 283 282 283 283 283 282 281 280 279 277 277 277 276 275 275 275 273 273 273 270 268 267 266 267 267 265 265 266 267 269 272 272 268 264 261 259 258 259 260 261 260 260 260 260 262 262 261
287 286 286 286 285 286 286 286 287 288 288 288 288 288 288 288 289 289 289 288 289 289 289 289 289 289 289 290 290 288 286 286 286 287 287 287 286 285 284 283 282 281 282 281 280 279 278 277 276 275 276 276 276 276 275 274 274 274 272 269 267 266 265 266 266 264 263 263 264 264 264 264 263 262 261 262 263 262 261 261 260 260 261 262 262 262 261
284 284 283 283 283 284 285 286 286 287 287 287 288 288 288 289 289 289 288 288 289 289 289 289 289 290 290 290 288 286 286 287 287 287 286 284 283 282 283 283 281 280 279 278 277 277 275 274 275 275 275 276 275 274 273 273 272 272 271 268 267 266 265 264 264 263 262 261 261 261 261 261 262 263 263 263 264 264 264 265 265 263 262 262 261 260 260
282 282 281 282 283 284 285 286 286 287 287 287 288 288 289 289 289 289 289 289 289 289 289 289 290 290 289 288 288 288 288 288 287 286 285 284 283 283 282 282 280 279 278 277 276 276 275 275 275 275 275 275 274 272 272 272 271 271 270 268 267 267 266 265 264 263 262 261 260 260 261 261 261 262 263 263 262 263 266 267 266 263 261 261 261 261 260
280 280 280 281 283 284 285 285 286 287 287 288 288 289 289 289 289 289 290 290 290 289 289 290 291 290 289 289 289 289 289 289 288 287 285 285 285 284 284 282 281 280 279 278 277 276 276 276 275 274 274 275 274 272 272 272 272 271 269 267 267 267 266 266 266 266 265 264 264 264 264 266 266 265 265 264 264 264 265 265 263 262 261 261 261 261 261
279 279 280 281 282 283 284 285 286 287 288 288 288 289 289 289 289 290 291 291 290 290 290 291 291 290 290 291 291 291 291 289 288 287 287 286 286 286 285 283 281 281 280 279 277 276 275 275 275 275 275 275 274 272 271 271 270 268 266 267 268 267 266 266 267 267 267 269 270 270 270 271 271 269 267 265 264 263 262 262 262 262 262 262 263 264 265
278 279 280 281 283 284 285 286 287 288 288 288 288 289 289 290 290 290 291 291 291 291 292 293 293 291 292 293 293 293 292 289 288 288 288 287 287 287 285 283 282 281 280 279 278 277 277 277 277 277 277 276 273 271 271 270 268 266 266 268 268 267 267 267 267 266 267 269 271 272 272 272 271 269 268 265 263 262 261 262 264 265 266 267 268 268 269
278 280 281 283 284 285 286 287 287 288 288 288 288 289 290 290 290 291 292 293 293 293 293 294 293 293 294 294 294 292 290 289 288 288 288 287 286 284 282 281 281 280 280 279 279 279 280 281 281 280 280 279 276 274 273 272 269 268 268 269 268 266 266 266 265 266 267 269 270 270 270 269 268 268 268 266 265 265 265 266 267 269 270 270 271 270 271
279 281 283 284 285 286 286 286 287 287 287 288 288 289 291 292 292 293 293 294 294 294 294 294 294 294 295 295 293 291 289 288 287 287 287 285 282 280 279 280 282 283 282 280 281 283 283 283 284 284 284 283 281 278 276 275 274 272 272 271 268 266 265 265 266 267 269 269 268 268 267 266 266 265 265 265 265 267 268 270 272 273 273 274 274 273 272
281 282 283 284 285 285 286 286 287 288 288 289 290 291 292 293 293 294 294 294 294 294 294 294 294 295 295 295 294 292 290 287 286 286 284 280 277 279 281 282 285 287 285 283 283 283 284 286 287 287 288 289 286 283 281 279 277 276 276 276 274 272 270 269 268 268 268 266 264 263 262 262 263 263 264 266 268 269 272 274 274 274 274 275 275 274 272
282 283 284 284 285 285 286 287 288 288 289 291 292 293 293 293 293 293 294 295 295 295 294 294 294 294 295 296 294 291 288 286 285 285 280 275 276 280 282 283 286 288 286 283 279 278 281 287 288 289 294 295 292 289 287 285 283 284 287 287 281 274 270 267 264 263 264 263 260 259 259 261 264 265 267 270 271 272 273 274 273 272 272 272 272 271 269
282 283 283 284 284 285 286 287 288 290 291 292 293 293 293 293 293 294 295 296 296 296 295 294 293 293 295 295 291 287 284 281 276 272 271 272 275 278 279 280 282 282 283 282 278 276 279 282 284 291 298 298 295 293 291 289 291 297 300 291 279 268 261 259 257 255 256 259 260 262 265 268 270 270 270 270 270 271 271 270 270 269 268 267 266 265 264
281 282 283 284 285 286 288 289 290 291 292 293 293 294 294 294 296 297 297 297 297 297 295 293 292 291 292 291 288 284 282 278 269 263 265 268 268 269 272 272 270 273 278 280 281 281 279 279 283 290 296 297 295 293 291 293 302 308 296 283 275 263 254 254 257 257 258 262 266 270 272 273 271 270 270 270 269 268 267 266 265 263 261 260 260 262 264
282 283 284 286 287 288 290 291 291 292 293 293 294 294 295 297 299 299 299 299 299 297 294 293 291 290 289 288 288 285 281 277 274 272 272 269 262 258 262 263 264 269 272 274 278 281 281 283 289 293 294 294 292 290 293 305 313 297 278 267 263 261 260 263 268 269 268 269 271 273 274 274 273 271 271 269 267 263 261 260 257 256 256 259 262 266 271
283 285 286 288 289 290 291 291 291 292 293 294 295 296 298 300 301 301 301 301 299 297 295 293 292 290 289 289 289 286 281 279 280 280 279 272 260 255 259 262 264 268 270 272 276 278 281 288 292 291 289 290 289 291 299 307 292 274 267 261 262 269 274 276 276 273 272 274 277 278 277 276 275 274 273 270 267 262 259 259 259 260 262 265 268 272 274
285 287 288 289 290 291 291 291 292 293 294 296 298 300 302 303 303 302 301 300 298 297 296 293 290 289 288 287 287 285 284 282 277 269 269 268 258 250 254 261 265 269 271 272 274 279 285 291 290 286 285 289 293 298 302 300 284 274 279 281 279 279 280 281 280 281 283 286 291 295 294 287 279 277 278 276 272 267 263 263 264 266 267 269 271 273 273
287 288 289 289 290 290 291 292 294 296 297 300 302 304 305 304 304 303 303 302 302 300 295 289 287 286 283 279 280 280 279 276 267 257 256 256 249 247 256 267 271 273 274 274 277 284 288 288 286 285 286 288 288 289 293 302 314 316 310 306 301 296 296 297 295 293 295 297 298 299 299 294 289 288 287 284 279 276 273 271 273 274 276 278 279 277 276
288 288 288 289 290 292 294 296 297 299 302 304 306 306 305 305 305 305 305 307 308 306 301 297 294 289 281 276 276 276 273 269 260 247 240 242 249 261 271 274 272 274 276 277 282 286 285 280 280 283 283 276 274 282 300 320 331 329 322 320 316 311 315 317 309 302 304 308 305 299 293 290 289 289 287 285 284 282 279 280 281 281 283 285 283 279 278
288 288 290 291 293 295 297 299 301 304 306 307 306 306 305 306 306 308 312 319 325 329 332 333 329 317 301 289 281 274 268 259 242 228 229 237 249 266 273 272 269 271 275 279 283 282 276 272 275 281 297 307 307 316 328 335 339 335 329 326 322 321 325 323 312 304 304 304 302 295 287 283 282 282 282 283 283 281 281 284 287 287 288 287 283 276 275
288 290 292 294 296 297 299 301 303 306 307 305 304 304 304 304 307 314 326 345 359 5 7 8 8 6 2 355 327 270 256 229 212 221 237 244 248 260 271 274 274 274 278 282 279 271 266 275 298 326 345 337 333 340 348 348 344 337 326 318 314 313 313 308 302 300 299 297 295 292 287 284 284 282 282 283 282 281 281 283 287 292 293 288 278 269 265
291 293 294 296 297 299 301 303 304 305 303 301 300 300 298 300 310 325 348 7 11 13 16 20 25 30 37 53 78 94 83 66 279 256 254 261 270 274 272 272 274 277 283 281 268 269 302 348 3 8 3 354 348 346 343 336 328 319 311 308 308 309 306 302 297 294 291 290 290 289 288 288 286 284 283 281 281 281 280 280 285 292 291 280 266 259 253
293 294 295 296 297 300 302 303 302 300 298 295 293 290 286 290 307 338 11 15 14 14 16 19 26 33 41 50 55 46 17 347 322 306 293 285 283 278 271 270 272 274 289 307 308 332 0 19 34 31 9 352 344 340 336 330 322 315 313 312 310 306 302 297 291 287 287 289 289 289 287 285 284 283 282 279 278 280 282 280 281 282 274 260 245 231 217
293 294 294 295 297 299 300 299 297 293 289 282 274 262 251 258 285 356 15 12 12 11 5 3 8 18 21 16 6 350 336 326 313 299 287 283 281 278 276 277 271 267 304 340 357 11 19 26 29 17 1 350 343 338 333 328 321 316 314 310 305 300 295 291 288 286 286 286 285 284 282 281 279 279 279 277 276 278 278 274 264 253 242 225 201 185 176
292 291 291 293 295 297 295 292 288 281 268 250 235 221 200 180 183 286 345 348 345 339 338 339 338 334 335 341 344 339 332 326 311 291 285 300 316 321 320 317 328 352 7 17 26 30 27 19 11 5 360 351 342 335 330 325 320 314 310 306 305 304 302 298 294 294 295 293 290 287 283 282 282 280 277 274 275 272 263 245 225 207 187 169 163 162 157
287 286 288 292 293 291 286 280 271 249 224 215 216 212 201 197 222 285 334 339 329 323 327 329 325 324 329 334 334 330 329 329 330 343 4 20 19 13 25 38 36 33 36 39 39 34 24 9 0 359 357 350 342 337 332 326 320 316 316 317 318 317 314 310 311 318 322 319 312 301 290 289 294 290 259 240 237 219 194 180 174 167 160 158 162 162 158
278 277 283 286 285 277 268 253 226 202 199 206 217 221 221 221 229 270 316 319 311 313 334 344 341 342 350 355 357 14 25 21 21 32 45 52 54 53 54 55 53 51 50 46 37 27 18 9 3 1 357 349 340 334 330 327 329 335 341 343 342 341 343 351 358 358 351 344 341 341 340 342 36 121 137 147 151 149 146 145 147 149 153 158 159 157 159
268 269 275 274 263 246 228 210 194 188 188 190 199 227 242 234 216 237 279 303 319 338 353 350 341 343 357 7 13 28 40 45 51 59 61 61 62 60 52 46 47 50 46 35 25 21 21 19 12 3 354 345 337 334 336 344 354 359 360 4 13 19 19 21 21 14 9 13 26 42 55 69 87 101 109 121 134 136 132 134 143 150 152 152 153 159 172
263 265 263 247 223 209 199 187 180 182 190 193 191 200 218 228 232 237 220 76 46 29 21 7 343 347 19 28 31 46 61 68 69 65 59 57 60 54 42 37 42 45 38 32 31 30 26 18 8 1 355 349 345 346 352 1 6 8 11 20 29 28 26 30 32 29 29 37 47 60 74 84 95 106 110 116 124 129 132 140 153 155 146 147 157 166 168
254 248 229 205 195 192 186 177 175 183 194 189 177 176 195 226 249 97 101 94 79 62 56 51 51 61 64 56 53 63 73 73 66 61 58 57 54 44 39 45 51 42 32 33 33 24 13 8 7 6 3 358 355 357 0 4 11 18 22 26 26 30 41 48 35 27 37 54 60 67 85 104 116 127 131 131 132 134 134 139 148 149 145 149 157 157 145
229 213 196 189 188 184 178 177 180 182 175 164 156 156 163 150 102 115 131 132 129 126 111 87 73 72 72 69 71 77 79 72 64 60 56 49 42 40 45 48 42 32 29 29 21 9 6 9 12 10 6 2 2 5 4 4 12 19 23 23 24 34 51 60 39 26 39 67 81 94 124 135 135 142 147 148 148 144 136 134 141 147 145 141 136 132 129
194 186 183 184 183 177 171 169 166 159 153 149 151 158 163 163 166 169 162 152 140 128 121 116 102 85 79 81 86 85 82 75 68 61 51 37 27 27 31 30 29 33 36 27 13 6 9 11 9 6 4 3 4 6 7 7 10 14 16 20 28 38 44 50 50 48 57 76 98 117 133 142 147 146 141 139 140 138 135 137 141 144 139 128 125 130 135
172 175 178 176 170 163 158 155 154 155 155 156 157 157 158 159 161 158 149 140 134 128 124 120 107 87 89 99 99 90 81 71 62 56 48 37 24 15 10 13 23 38 38 19 9 8 12 10 5 2 1 0 1 3 6 8 7 5 7 13 22 30 36 44 50 56 66 82 98 108 115 125 132 130 127 131 133 130 127 130 135 137 139 139 139 140 142